This is the latest recevied weather packets stored in our database for station/object KE0TNI-13. If no packets are shown the sender has not sent any weather packets the latest 10 day(s).
| Time | Temp. | Humidity | Pressure | Rain* | Wind** | Luminosity | Snow |
|---|---|---|---|---|---|---|---|
| 1777996824 | -1.11° C | 98% | 1015 hPa | 0 mm | - | 142 W/m² | - |
| 1777996520 | -1.11° C | 98% | 1015.3 hPa | 0 mm | - | 160 W/m² | - |
| 1777996217 | -1.11° C | 98% | 1014.9 hPa | 0 mm | - | 135 W/m² | - |
| 1777995913 | -1.11° C | 98% | 1014.7 hPa | 0 mm | - | 128 W/m² | - |
| 1777995609 | -1.11° C | 98% | 1014.7 hPa | 0 mm | - | 134 W/m² | - |
| 1777995307 | -1.67° C | 98% | 1015 hPa | 0 mm | - | 129 W/m² | - |
| 1777995003 | -1.67° C | 98% | 1014.9 hPa | 0 mm | - | 97 W/m² | - |
| 1777994701 | -1.67° C | 98% | 1014.7 hPa | 0.51 mm | - | 96 W/m² | - |
| 1777994396 | -1.67° C | 98% | 1015 hPa | 0.51 mm | - | 88 W/m² | - |
| 1777994091 | -1.67° C | 98% | 1015 hPa | 0 mm | - | 82 W/m² | - |
| 1777993789 | -1.67° C | 98% | 1015 hPa | 0 mm | - | 75 W/m² | - |
| 1777993486 | -1.67° C | 98% | 1015 hPa | 0 mm | - | 80 W/m² | - |
| 1777993185 | -1.67° C | 98% | 1015.3 hPa | 0 mm | - | 91 W/m² | - |
| 1777992883 | -1.67° C | 98% | 1015.4 hPa | 0 mm | - | 66 W/m² | - |
| 1777992581 | -1.67° C | 98% | 1015.3 hPa | 0 mm | - | 101 W/m² | - |
| 1777992279 | -1.67° C | 98% | 1015.3 hPa | 0 mm | - | 61 W/m² | - |
| 1777991976 | -1.67° C | 98% | 1015.4 hPa | 0 mm | - | 57 W/m² | - |
| 1777991674 | -1.67° C | 98% | 1015.4 hPa | 0 mm | - | 45 W/m² | - |
| 1777991371 | -1.67° C | 98% | 1015.4 hPa | 0 mm | - | 56 W/m² | - |
| 1777991068 | -1.67° C | 98% | 1015.3 hPa | 0 mm | - | 48 W/m² | - |
| 1777990765 | -1.67° C | 98% | 1015.2 hPa | 0 mm | - | 42 W/m² | - |
| 1777990462 | -1.67° C | 98% | 1015.7 hPa | 0 mm | - | 56 W/m² | - |
| 1777989856 | -1.67° C | 98% | 1015.6 hPa | 0 mm | - | 67 W/m² | - |
| 1777989553 | -1.67° C | 98% | 1015.6 hPa | 0 mm | - | 54 W/m² | - |
| 1777989249 | -1.67° C | 98% | 1015.6 hPa | 0 mm | - | 27 W/m² | - |
* Rain latest hour (hover to see other rain measurements)
** Current wind speed in m/s (hover to see current wind gust speed)